| time (UTC) | temp C | wind direction | speed KPH | gust KPH | rain 1hr cm | rain 24hr cm | rain mn cm | humidity % | barometer mb |
| 20260505191541 | 10 | 178 | 0.0 | 0.0 | 0.00 | 0.00 | 0.00 | 86 | 1006.6 |
| 20260505190037 | 10 | 222 | 0.0 | 0.0 | 0.00 | 0.00 | 0.00 | 86 | 1006.8 |
| 20260505184536 | 10 | 199 | 1.6 | 0.0 | 0.00 | 0.00 | 0.00 | 86 | 1006.8 |
| 20260505183035 | 10 | 252 | 1.6 | 0.0 | 0.00 | 0.00 | 0.00 | 84 | 1006.4 |
| 20260505181533 | 11 | 220 | 0.0 | 0.0 | 0.00 | 0.00 | 0.00 | 84 | 1006.3 |
| 20260505180029 | 11 | 158 | 1.6 | 0.0 | 0.00 | 0.00 | 0.00 | 82 | 1006.2 |
| 20260505174527 | 11 | 184 | 0.0 | 0.0 | 0.00 | 0.00 | 0.00 | 77 | 1006.1 |
| 20260505173038 | 11 | 238 | 0.0 | 0.0 | 0.00 | 0.00 | 0.00 | 78 | 1005.7 |
| 20260505171525 | 11 | 109 | 1.6 | 0.0 | 0.00 | 0.00 | 0.00 | 75 | 1005.8 |
| 20260505170025 | 11 | 216 | 1.6 | 0.0 | 0.00 | 0.00 | 0.00 | 75 | 1005.8 |
| 20260505164540 | 11 | 228 | 0.0 | 0.0 | 0.00 | 0.00 | 0.03 | 75 | 1005.6 |
| 20260505163017 | 11 | 194 | 3.2 | 0.0 | 0.00 | 0.00 | 0.03 | 74 | 1005.6 |
| 20260505161517 | 11 | 312 | 1.6 | 0.0 | 0.00 | 0.00 | 0.03 | 74 | 1005.5 |
| 20260505153013 | 11 | 354 | 3.2 | 0.0 | 0.00 | 0.00 | 0.03 | 75 | 1004.6 |
| 20260505151517 | 11 | 317 | 3.2 | 0.0 | 0.00 | 0.00 | 0.03 | 76 | 1004.5 |
| 20260505124549 | 10 | 193 | 3.2 | 0.0 | 0.00 | 0.00 | 0.00 | 72 | 1005.0 |
| 20260505123046 | 11 | 213 | 1.6 | 0.0 | 0.00 | 0.00 | 0.00 | 70 | 1005.4 |
| 20260505121544 | 11 | 200 | 1.6 | 0.0 | 0.00 | 0.00 | 0.00 | 70 | 1004.9 |
| 20260505120039 | 11 | 238 | 3.2 | 0.0 | 0.00 | 0.00 | 0.00 | 68 | 1004.3 |
| 20260505114544 | 11 | 206 | 4.8 | 0.0 | 0.00 | 0.00 | 0.00 | 74 | 1003.5 |
| 20260505113037 | 11 | 210 | 1.6 | 0.0 | 0.00 | 0.00 | 0.00 | 76 | 1002.9 |
| 20260505111545 | 12 | 211 | 1.6 | 0.0 | 0.00 | 0.00 | 0.00 | 74 | 1002.9 |
| 20260505101531 | 12 | 107 | 3.2 | 0.0 | 0.00 | 0.00 | 0.00 | 79 | 1003.0 |
| 20260505100039 | 12 | 190 | 1.6 | 0.0 | 0.00 | 0.00 | 0.00 | 78 | 1002.8 |
| 20260505094526 | 12 | 196 | 1.6 | 0.0 | 0.00 | 0.00 | 0.00 | 81 | 1002.3 |
| 20260505093026 | 12 | 184 | 1.6 | 0.0 | 0.00 | 0.00 | 0.00 | 83 | 1002.1 |
| 20260505091524 | 12 | 228 | 1.6 | 0.0 | 0.00 | 0.00 | 0.00 | 82 | 1001.5 |
| 20260505090044 | 12 | 188 | 0.0 | 0.0 | 0.00 | 0.00 | 0.00 | 86 | 1001.4 |
| 20260505084522 | 12 | 191 | 0.0 | 0.0 | 0.00 | 0.00 | 0.00 | 91 | 1001.4 |
| 20260505083024 | 13 | 202 | 0.0 | 0.0 | 0.00 | 0.00 | 0.00 | 93 | 1001.3 |
| 20260505081513 | 13 | 184 | 0.0 | 0.0 | 0.00 | 0.00 | 0.00 | 94 | 1001.3 |
| 20260505080013 | 13 | 184 | 0.0 | 0.0 | 0.00 | 0.00 | 0.00 | 94 | 1001.7 |
| 20260505074509 | 13 | 184 | 0.0 | 0.0 | 0.00 | 0.00 | 0.00 | 93 | 1001.8 |
| 20260505073007 | 14 | 96 | 1.6 | 0.0 | 0.00 | 0.00 | 0.00 | 92 | 1001.4 |
| 20260505071510 | 14 | 96 | 0.0 | 0.0 | 0.00 | 0.00 | 0.00 | 92 | 1001.1 |
| 20260505070006 | 14 | 354 | 1.6 | 0.0 | 0.00 | 0.00 | 0.00 | 92 | 1001.0 |
| 20260505064502 | 15 | 86 | 0.0 | 0.0 | 0.00 | 0.00 | 0.00 | 92 | 1000.8 |
| 20260505063001 | 15 | 86 | 0.0 | 0.0 | 0.00 | 0.00 | 0.00 | 92 | 1000.2 |
| 20260505061625 | 15 | 86 | 0.0 | 0.0 | 0.00 | 0.00 | 0.00 | 90 | 999.8 |
| 20260505060058 | 15 | 30 | 0.0 | 0.0 | 0.00 | 0.00 | 0.00 | 89 | 1000.2 |
| 20260505054604 | 15 | 30 | 1.6 | 0.0 | 0.00 | 0.00 | 0.00 | 88 | 999.7 |
| 20260505053050 | 16 | 224 | 1.6 | 0.0 | 0.00 | 0.00 | 0.00 | 85 | 1000.8 |
| 20260505051546 | 16 | 129 | 1.6 | 0.0 | 0.00 | 0.00 | 0.00 | 83 | 998.6 |
| 20260505041541 | 20 | 98 | 1.6 | 0.0 | 0.00 | 0.00 | 0.00 | 72 | 997.3 |
| 20260505040041 | 20 | 106 | 3.2 | 0.0 | 0.00 | 0.00 | 0.00 | 73 | 997.0 |
| 20260505034538 | 20 | 115 | 3.2 | 0.0 | 0.00 | 0.00 | 0.00 | 74 | 996.9 |
| 20260505033046 | 20 | 98 | 3.2 | 0.0 | 0.00 | 0.00 | 0.00 | 75 | 997.0 |
| 20260505031537 | 19 | 90 | 3.2 | 0.0 | 0.00 | 0.00 | 0.00 | 77 | 997.3 |
| 20260505030037 | 18 | 113 | 3.2 | 0.0 | 0.00 | 0.00 | 0.00 | 82 | 997.2 |
| 20260505024556 | 17 | 60 | 0.0 | 0.0 | 0.00 | 0.00 | 0.00 | 84 | 997.2 |
| 20260505023037 | 18 | 60 | 0.0 | 0.0 | 0.00 | 0.00 | 0.00 | 82 | 997.3 |
| 20260505021542 | 19 | 60 | 0.0 | 0.0 | 0.00 | 0.00 | 0.00 | 79 | 997.2 |
| 20260505020021 | 20 | 60 | 0.0 | 0.0 | 0.00 | 0.00 | 0.00 | 74 | 997.0 |
| 20260505014521 | 21 | 60 | 1.6 | 0.0 | 0.00 | 0.00 | 0.00 | 68 | 996.7 |
| 20260505013015 | 21 | 107 | 1.6 | 0.0 | 0.00 | 0.00 | 0.00 | 66 | 996.7 |
| 20260505011514 | 21 | 40 | 1.6 | 0.0 | 0.00 | 0.00 | 0.00 | 66 | 996.6 |
| 20260505010012 | 21 | 109 | 1.6 | 0.0 | 0.00 | 0.00 | 0.00 | 65 | 996.5 |
| 20260505004546 | 22 | 74 | 3.2 | 0.0 | 0.00 | 0.00 | 0.00 | 63 | 996.5 |
| 20260505003041 | 23 | 64 | 4.8 | 0.0 | 0.00 | 0.00 | 0.00 | 60 | 996.5 |
| 20260505001538 | 23 | 44 | 3.2 | 0.0 | 0.00 | 0.00 | 0.00 | 59 | 996.5 |
| 20260505000039 | 23 | 70 | 4.8 | 0.0 | 0.00 | 0.00 | 0.00 | 58 | 996.5 |
| 20260504234537 | 24 | 101 | 4.8 | 0.0 | 0.00 | 0.00 | 0.00 | 59 | 996.8 |
| 20260504233048 | 24 | 98 | 4.8 | 0.0 | 0.00 | 0.00 | 0.00 | 58 | 997.2 |
| 20260504231534 | 24 | 100 | 4.8 | 0.0 | 0.00 | 0.00 | 0.00 | 57 | 997.6 |
| 20260504230033 | 24 | 157 | 4.8 | 0.0 | 0.00 | 0.00 | 0.00 | 57 | 997.7 |
| 20260504224532 | 25 | 68 | 4.8 | 0.0 | 0.00 | 0.00 | 0.00 | 57 | 997.8 |
| 20260504223036 | 24 | 216 | 3.2 | 0.0 | 0.00 | 0.00 | 0.00 | 61 | 998.1 |
| 20260504221535 | 23 | 120 | 4.8 | 0.0 | 0.00 | 0.00 | 0.00 | 60 | 998.1 |
| 20260504220028 | 23 | 80 | 4.8 | 0.0 | 0.00 | 0.00 | 0.00 | 59 | 998.2 |
| 20260504214527 | 24 | 105 | 4.8 | 0.0 | 0.00 | 0.00 | 0.00 | 58 | 998.2 |
| 20260504213025 | 24 | 78 | 4.8 | 0.0 | 0.00 | 0.00 | 0.00 | 58 | 998.4 |
| 20260504211522 | 25 | 95 | 6.4 | 0.0 | 0.00 | 0.00 | 0.00 | 56 | 998.4 |
| 20260504210023 | 25 | 68 | 6.4 | 0.0 | 0.00 | 0.00 | 0.00 | 56 | 998.2 |
| 20260504204520 | 24 | 89 | 8.0 | 0.0 | 0.00 | 0.00 | 0.00 | 58 | 998.6 |
| 20260504203018 | 24 | 154 | 8.0 | 0.0 | 0.00 | 0.00 | 0.00 | 57 | 998.6 |
| 20260504201519 | 24 | 121 | 8.0 | 0.0 | 0.00 | 0.00 | 0.00 | 56 | 998.7 |
| 20260504201516 | 24 | 116 | 8.0 | 0.0 | 0.00 | 0.00 | 0.00 | 56 | 998.7 |
| 20260504200010 | 25 | 124 | 4.8 | 0.0 | 0.00 | 0.00 | 0.00 | 56 | 998.6 |
| 20260504194509 | 24 | 51 | 6.4 | 0.0 | 0.00 | 0.00 | 0.00 | 56 | 998.7 |
| 20260504193007 | 24 | 81 | 6.4 | 0.0 | 0.00 | 0.00 | 0.00 | 58 | 998.8 |